CT1ETE Weather Reports


time (UTC)temp
C
wind
direction
speed
KPH
gust
KPH
rain 1hr
cm
rain 24hr
cm
rain mn
cm
humidity
%
barometer
mb
20260904190240 27 138 6.4 12.9 0.00 0.00 0.00 58 1020.3
20260904184740 27 111 6.4 9.7 0.00 0.00 0.00 67 1020.3
20260904183238 27 111 4.8 6.4 0.00 0.00 0.00 65 1020.8
20260904181738 27 111 3.2 9.7 0.00 0.00 0.00 65 1020.9
20260904180238 27 112 4.8 9.7 0.00 0.00 0.00 65 1021.0
20260904175440 28 235 3.2 11.3 0.00 0.00 0.00 64 1021.3
20260904173238 28 235 6.4 11.3 0.00 0.00 0.00 61 1021.3
20260904171738 29 254 4.8 12.9 0.00 0.00 0.00 60 1021.4
20260904170239 30 235 6.4 12.9 0.00 0.00 0.00 60 1021.4
20260904165423 30 28 0.0 4.8 0.00 0.00 0.00 59 1021.1
20260904163229 30 28 4.8 8.0 0.00 0.00 0.00 59 1020.9
20260904161730 30 243 4.8 16.1 0.00 0.00 0.00 60 1021.0
20260904160230 29 239 9.7 20.9 0.00 0.00 0.00 60 1021.1
20260904154730 29 248 16.1 27.4 0.00 0.00 0.00 59 1020.8
20260904153230 30 229 22.5 37.0 0.00 0.00 0.00 55 1020.7
20260904151728 30 248 19.3 37.0 0.00 0.00 0.00 53 1020.7
20260904150228 30 226 20.9 32.2 0.00 0.00 0.00 54 1020.7
20260904144727 30 227 8.0 16.1 0.00 0.00 0.00 55 1020.3
20260904143228 30 136 6.4 16.1 0.00 0.00 0.00 53 1019.7
20260904142417 30 331 4.8 9.7 0.00 0.00 0.00 49 1019.8
20260904140228 30 14 3.2 11.3 0.00 0.00 0.00 51 1020.5
20260904135424 29 342 4.8 14.5 0.00 0.00 0.00 52 1020.7
20260904133226 29 333 6.4 17.7 0.00 0.00 0.00 53 1020.8
20260904132428 29 355 6.4 12.9 0.00 0.00 0.00 55 1020.6
20260904130223 28 349 6.4 12.9 0.00 0.00 0.00 53 1021.2
20260904124721 29 298 6.4 12.9 0.00 0.00 0.00 53 1021.9
20260904123219 29 233 3.2 9.7 0.00 0.00 0.00 53 1022.4
20260904121720 29 240 4.8 8.0 0.00 0.00 0.00 51 1022.5
20260904120219 29 69 3.2 8.0 0.00 0.00 0.00 50 1022.4
20260904114719 29 336 3.2 9.7 0.00 0.00 0.00 52 1022.4
20260904113216 29 309 6.4 11.3 0.00 0.00 0.00 53 1022.5
20260904111716 28 236 4.8 12.9 0.00 0.00 0.00 52 1022.6
20260904110215 28 282 4.8 11.3 0.00 0.00 0.00 55 1022.6
20260904104715 28 277 6.4 12.9 0.00 0.00 0.00 58 1022.5
20260904103215 28 229 4.8 11.3 0.00 0.00 0.00 54 1022.4
20260904101714 27 231 4.8 11.3 0.00 0.00 0.00 56 1022.2
20260904100216 27 231 1.6 11.3 0.00 0.00 0.00 57 1021.9
20260904094711 27 238 3.2 11.3 0.00 0.00 0.00 59 1021.8
20260904093210 27 222 12.9 19.3 0.00 0.00 0.00 59 1021.3
20260904091707 26 101 8.0 12.9 0.00 0.00 0.00 56 1020.9
20260904090207 26 103 1.6 9.7 0.00 0.00 0.00 57 1020.7
20260904084705 26 214 4.8 11.3 0.00 0.00 0.00 57 1020.7
20260904083900 26 222 1.6 6.4 0.00 0.00 0.00 57 1020.6
20260904081703 25 88 6.4 11.3 0.00 0.00 0.00 52 1020.3
20260904080201 25 110 6.4 12.9 0.00 0.00 0.00 55 1020.2
20260904074700 26 211 1.6 4.8 0.00 0.00 0.00 49 1020.2
20260904073201 27 211 4.8 9.7 0.00 0.00 0.00 48 1020.3
20260904071701 28 135 4.8 12.9 0.00 0.00 0.00 41 1020.2
20260904070159 28 138 4.8 16.1 0.00 0.00 0.00 40 1020.2
20260904064700 27 125 11.3 16.1 0.00 0.00 0.00 40 1019.9
20260904063158 28 101 8.0 16.1 0.00 0.00 0.00 39 1019.9
20260904062938 28 120 12.9 19.3 0.00 0.00 0.00 38 1019.8
20260904061659 28 132 11.3 16.1 0.00 0.00 0.00 39 1019.9
20260904054659 28 134 17.7 22.5 0.00 0.00 0.00 38 1019.6
20260904054541 28 133 14.5 20.9 0.00 0.00 0.00 39 1019.3
20260904051655 28 107 16.1 22.5 0.00 0.00 0.00 38 1019.2
20260904050155 27 134 16.1 22.5 0.00 0.00 0.00 40 1019.2
20260904044655 28 150 14.5 22.5 0.00 0.00 0.00 40 1019.0
20260904043155 28 101 14.5 24.1 0.00 0.00 0.00 40 1018.9
20260904041654 28 87 11.3 19.3 0.00 0.00 0.00 41 1019.0
20260904041541 28 137 12.9 22.5 0.00 0.00 0.00 40 1019.0
20260904034654 29 107 14.5 20.9 0.00 0.00 0.00 39 1019.1
20260904033856 28 148 9.7 16.1 0.00 0.00 0.00 40 1019.0
20260904031655 28 105 9.7 12.9 0.00 0.00 0.00 42 1018.9
20260904030153 28 104 8.0 16.1 0.00 0.00 0.00 43 1019.0
20260904024650 27 96 9.7 17.7 0.00 0.00 0.00 46 1019.1
20260904023151 26 111 8.0 12.9 0.00 0.00 0.00 51 1019.3
20260904021651 25 99 6.4 11.3 0.00 0.00 0.00 53 1019.5
20260904020852 25 147 4.8 6.4 0.00 0.00 0.00 52 1019.9
20260904014649 25 148 4.8 8.0 0.00 0.00 0.00 56 1020.2
20260904013845 25 149 1.6 4.8 0.00 0.00 0.00 55 1020.4
20260904011648 25 149 0.0 8.0 0.00 0.00 0.00 52 1020.6
20260904010146 25 149 4.8 8.0 0.00 0.00 0.00 51 1020.6
20260904004644 25 127 3.2 6.4 0.00 0.00 0.00 54 1020.6
20260904003835 26 127 1.6 4.8 0.00 0.00 0.00 52 1020.6
20260904001640 27 127 0.0 4.8 0.00 0.00 0.00 49 1020.7
20260904000140 27 127 3.2 8.0 0.00 0.00 0.00 47 1020.8
20260903234640 27 127 6.4 11.3 0.00 0.00 0.00 48 1020.7
20260903233140 26 115 4.8 9.7 0.00 0.00 0.00 49 1020.8
20260903231640 26 113 4.8 6.4 0.00 0.00 0.00 48 1020.9
20260903230150 27 113 3.2 4.8 0.00 0.00 0.00 45 1020.9
20260903224638 27 113 1.6 6.4 0.00 0.00 0.00 45 1021.0
20260903223836 26 113 4.8 6.4 0.00 0.00 0.00 45 1021.0
20260903221636 26 113 3.2 6.4 0.00 0.00 0.00 48 1021.0
20260903220134 26 113 3.2 4.8 0.00 0.00 0.00 45 1021.1
20260903214634 26 113 4.8 9.7 0.00 0.00 0.00 45 1021.2
20260903213134 27 156 3.2 8.0 0.00 0.00 0.00 45 1021.2
20260903211634 27 156 4.8 4.8 0.00 0.00 0.00 45 1021.4
20260903210132 27 156 3.2 6.4 0.00 0.00 0.00 46 1021.6
20260903204630 27 218 3.2 4.8 0.00 0.00 0.00 45 1021.4
20260903203128 27 218 1.6 3.2 0.00 0.00 0.00 45 1021.4
20260903201629 27 218 0.0 1.6 0.00 0.00 0.00 46 1021.3
20260903200128 28 218 0.0 3.2 0.00 0.00 0.00 45 1021.1
20260903194622 28 218 3.2 4.8 0.00 0.00 0.00 42 1020.9
20260903193122 28 218 0.0 4.8 0.00 0.00 0.00 41 1020.8
20260903191620 29 218 3.2 6.4 0.00 0.00 0.00 40 1020.7